Year,Month,Day,Hour,Minute,Value (Times are PST for temperature in C)
2008,06,28,00,00,17.80
2008,06,28,00,01,17.80
2008,06,28,00,02,17.80
2008,06,28,00,03,17.80
2008,06,28,00,04,17.80
2008,06,28,00,05,17.90
2008,06,28,00,06,17.90
2008,06,28,00,07,17.90
2008,06,28,00,08,18.00
2008,06,28,00,09,18.00
2008,06,28,00,10,18.00
2008,06,28,00,11,18.00
2008,06,28,00,12,18.00
2008,06,28,00,13,18.00
2008,06,28,00,14,18.10
2008,06,28,00,15,18.10
2008,06,28,00,16,18.20
2008,06,28,00,17,18.20
2008,06,28,00,18,18.20
2008,06,28,00,19,18.20
2008,06,28,00,20,18.20
2008,06,28,00,21,18.20
2008,06,28,00,22,18.20
2008,06,28,00,23,18.20
2008,06,28,00,24,18.20
2008,06,28,00,25,18.20
2008,06,28,00,26,18.30
2008,06,28,00,27,18.30
2008,06,28,00,28,18.20
2008,06,28,00,29,18.20
2008,06,28,00,30,18.30
2008,06,28,00,31,18.30
2008,06,28,00,32,18.30
2008,06,28,00,33,18.40
2008,06,28,00,34,18.40
2008,06,28,00,35,18.50
2008,06,28,00,36,18.50
2008,06,28,00,37,18.50
2008,06,28,00,38,18.50
2008,06,28,00,39,18.50
2008,06,28,00,40,18.50
2008,06,28,00,41,18.50
2008,06,28,00,42,18.50
2008,06,28,00,43,18.50
2008,06,28,00,44,18.50
2008,06,28,00,45,18.50
2008,06,28,00,46,18.50
2008,06,28,00,47,18.50
2008,06,28,00,48,18.40
2008,06,28,00,49,18.40
2008,06,28,00,50,18.40
2008,06,28,00,51,18.40
2008,06,28,00,52,18.40
2008,06,28,00,53,18.40
2008,06,28,00,54,18.40
2008,06,28,00,55,18.40
2008,06,28,00,56,18.40
2008,06,28,00,57,18.40
2008,06,28,00,58,18.30
2008,06,28,00,59,18.30
2008,06,28,01,00,18.30
2008,06,28,01,01,18.40
2008,06,28,01,02,18.40
2008,06,28,01,03,18.40
2008,06,28,01,04,18.40
2008,06,28,01,05,18.40
2008,06,28,01,06,18.50
2008,06,28,01,07,18.50
2008,06,28,01,08,18.50
2008,06,28,01,09,18.50
2008,06,28,01,10,18.50
2008,06,28,01,11,18.50
2008,06,28,01,12,18.50
2008,06,28,01,13,18.50
2008,06,28,01,14,18.50
2008,06,28,01,15,18.50
2008,06,28,01,16,18.50
2008,06,28,01,17,18.50
2008,06,28,01,18,18.50
2008,06,28,01,19,18.40
2008,06,28,01,20,18.40
2008,06,28,01,21,18.40
2008,06,28,01,22,18.30
2008,06,28,01,23,18.30
2008,06,28,01,24,18.30
2008,06,28,01,25,18.40
2008,06,28,01,26,18.30
2008,06,28,01,27,18.30
2008,06,28,01,28,18.30
2008,06,28,01,29,18.30
2008,06,28,01,30,18.30
2008,06,28,01,31,18.40
2008,06,28,01,32,18.40
2008,06,28,01,33,18.40
2008,06,28,01,34,18.30
2008,06,28,01,35,18.30
2008,06,28,01,36,18.30
2008,06,28,01,37,18.30
2008,06,28,01,38,18.30
2008,06,28,01,39,18.30
2008,06,28,01,40,18.20
2008,06,28,01,41,18.20
2008,06,28,01,42,18.10
2008,06,28,01,43,18.10
2008,06,28,01,44,18.10
2008,06,28,01,45,18.00
2008,06,28,01,46,18.00
2008,06,28,01,47,18.00
2008,06,28,01,48,17.90
2008,06,28,01,49,17.90
2008,06,28,01,50,18.00
2008,06,28,01,51,18.00
2008,06,28,01,52,18.00
2008,06,28,01,53,18.00
2008,06,28,01,54,18.00
2008,06,28,01,55,17.90
2008,06,28,01,56,18.00
2008,06,28,01,57,17.90
2008,06,28,01,58,17.90
2008,06,28,01,59,17.90
2008,06,28,02,00,18.00
2008,06,28,02,01,18.00
2008,06,28,02,02,18.00
2008,06,28,02,03,18.10
2008,06,28,02,04,18.10
2008,06,28,02,05,18.00
2008,06,28,02,06,18.00
2008,06,28,02,07,18.00
2008,06,28,02,08,18.00
2008,06,28,02,09,18.00
2008,06,28,02,10,18.10
2008,06,28,02,11,18.10
2008,06,28,02,12,18.10
2008,06,28,02,13,18.10
2008,06,28,02,14,18.10
2008,06,28,02,15,18.10
2008,06,28,02,16,18.10
2008,06,28,02,17,18.10
2008,06,28,02,18,18.00
2008,06,28,02,19,18.00
2008,06,28,02,20,18.00
2008,06,28,02,21,17.90
2008,06,28,02,22,17.90
2008,06,28,02,23,17.90
2008,06,28,02,24,17.90
2008,06,28,02,25,17.90
2008,06,28,02,26,17.80
2008,06,28,02,27,17.80
2008,06,28,02,28,17.80
2008,06,28,02,29,17.80
2008,06,28,02,30,17.80
2008,06,28,02,31,17.80
2008,06,28,02,32,17.80
2008,06,28,02,33,17.80
2008,06,28,02,34,17.80
2008,06,28,02,35,17.80
2008,06,28,02,36,17.70
2008,06,28,02,37,17.70
2008,06,28,02,38,17.70
2008,06,28,02,39,17.70
2008,06,28,02,40,17.70
2008,06,28,02,41,17.60
2008,06,28,02,42,17.60
2008,06,28,02,43,17.60
2008,06,28,02,44,17.60
2008,06,28,02,45,17.60
2008,06,28,02,46,17.60
2008,06,28,02,47,17.60
2008,06,28,02,48,17.60
2008,06,28,02,49,17.60
2008,06,28,02,50,17.60
2008,06,28,02,51,17.60
2008,06,28,02,52,17.60
2008,06,28,02,53,17.50
2008,06,28,02,54,17.50
2008,06,28,02,55,17.50
2008,06,28,02,56,17.40
2008,06,28,02,57,17.40
2008,06,28,02,58,17.40
2008,06,28,02,59,17.40
2008,06,28,03,00,17.40
2008,06,28,03,01,17.40
2008,06,28,03,02,17.40
2008,06,28,03,03,17.40
2008,06,28,03,04,17.40
2008,06,28,03,05,17.40
2008,06,28,03,06,17.40
2008,06,28,03,07,17.40
2008,06,28,03,08,17.40
2008,06,28,03,09,17.40
2008,06,28,03,10,17.50
2008,06,28,03,11,17.50
2008,06,28,03,12,17.50
2008,06,28,03,13,17.60
2008,06,28,03,14,17.60
2008,06,28,03,15,17.60
2008,06,28,03,16,17.60
2008,06,28,03,17,17.60
2008,06,28,03,18,17.60
2008,06,28,03,19,17.50
2008,06,28,03,20,17.50
2008,06,28,03,21,17.60
2008,06,28,03,22,17.50
2008,06,28,03,23,17.50
2008,06,28,03,24,17.50
2008,06,28,03,25,17.50
2008,06,28,03,26,17.50
2008,06,28,03,27,17.50
2008,06,28,03,28,17.40
2008,06,28,03,29,17.40
2008,06,28,03,30,17.40
2008,06,28,03,31,17.30
2008,06,28,03,32,17.30
2008,06,28,03,33,17.30
2008,06,28,03,34,17.20
2008,06,28,03,35,17.20
2008,06,28,03,36,17.10
2008,06,28,03,37,17.00
2008,06,28,03,38,16.90
2008,06,28,03,39,16.80
2008,06,28,03,40,16.70
2008,06,28,03,41,16.70
2008,06,28,03,42,16.70
2008,06,28,03,43,16.70
2008,06,28,03,44,16.70
2008,06,28,03,45,16.70
2008,06,28,03,46,16.70
2008,06,28,03,47,16.70
2008,06,28,03,48,16.70
2008,06,28,03,49,16.70
2008,06,28,03,50,16.70
2008,06,28,03,51,16.60
2008,06,28,03,52,16.60
2008,06,28,03,53,16.50
2008,06,28,03,54,16.50
2008,06,28,03,55,16.50
2008,06,28,03,56,16.60
2008,06,28,03,57,16.60
2008,06,28,03,58,16.60
2008,06,28,03,59,16.60
2008,06,28,04,00,16.60
2008,06,28,04,01,16.60
2008,06,28,04,02,16.70
2008,06,28,04,03,16.70
2008,06,28,04,04,16.70
2008,06,28,04,05,16.70
2008,06,28,04,06,16.70
2008,06,28,04,07,16.80
2008,06,28,04,08,16.70
2008,06,28,04,09,16.80
2008,06,28,04,10,16.80
2008,06,28,04,11,16.80
2008,06,28,04,12,16.90
2008,06,28,04,13,16.90
2008,06,28,04,14,16.90
2008,06,28,04,15,16.90
2008,06,28,04,16,16.90
2008,06,28,04,17,16.90
2008,06,28,04,18,16.90
2008,06,28,04,19,16.90
2008,06,28,04,20,16.90
2008,06,28,04,21,17.00
2008,06,28,04,22,17.00
2008,06,28,04,23,17.10
2008,06,28,04,24,17.10
2008,06,28,04,25,17.10
2008,06,28,04,26,17.20
2008,06,28,04,27,17.20
2008,06,28,04,28,17.20
2008,06,28,04,29,17.20
2008,06,28,04,30,17.30
2008,06,28,04,31,17.30
2008,06,28,04,32,17.30
2008,06,28,04,33,17.30
2008,06,28,04,34,17.30
2008,06,28,04,35,17.30
2008,06,28,04,36,17.30
2008,06,28,04,37,17.30
2008,06,28,04,38,17.30
2008,06,28,04,39,17.30
2008,06,28,04,40,17.30
2008,06,28,04,41,17.30
2008,06,28,04,42,17.40
2008,06,28,04,43,17.40
2008,06,28,04,44,17.40
2008,06,28,04,45,17.40
2008,06,28,04,46,17.50
2008,06,28,04,47,17.50
2008,06,28,04,48,17.60
2008,06,28,04,49,17.60
2008,06,28,04,50,17.60
2008,06,28,04,51,17.60
2008,06,28,04,52,17.60
2008,06,28,04,53,17.60
2008,06,28,04,54,17.60
2008,06,28,04,55,17.60
2008,06,28,04,56,17.60
2008,06,28,04,57,17.60
2008,06,28,04,58,17.50
2008,06,28,04,59,17.50
2008,06,28,05,00,17.40
2008,06,28,05,01,17.40
2008,06,28,05,02,17.40
2008,06,28,05,03,17.30
2008,06,28,05,04,17.30
2008,06,28,05,05,17.30
2008,06,28,05,06,17.30
2008,06,28,05,07,17.30
2008,06,28,05,08,17.20
2008,06,28,05,09,17.20
2008,06,28,05,10,17.20
2008,06,28,05,11,17.20
2008,06,28,05,12,17.20
2008,06,28,05,13,17.10
2008,06,28,05,14,17.10
2008,06,28,05,15,17.10
2008,06,28,05,16,17.10
2008,06,28,05,17,17.10
2008,06,28,05,18,17.10
2008,06,28,05,19,17.00
2008,06,28,05,20,17.00
2008,06,28,05,21,17.00
2008,06,28,05,22,16.90
2008,06,28,05,23,16.90
2008,06,28,05,24,16.90
2008,06,28,05,25,16.90
2008,06,28,05,26,16.90
2008,06,28,05,27,16.90
2008,06,28,05,28,16.80
2008,06,28,05,29,16.80
2008,06,28,05,30,16.80
2008,06,28,05,31,16.80
2008,06,28,05,32,16.70
2008,06,28,05,33,16.70
2008,06,28,05,34,16.60
2008,06,28,05,35,16.60
2008,06,28,05,36,16.60
2008,06,28,05,37,16.60
2008,06,28,05,38,16.50
2008,06,28,05,39,16.50
2008,06,28,05,40,16.50
2008,06,28,05,41,16.50
2008,06,28,05,42,16.50
2008,06,28,05,43,16.50
2008,06,28,05,44,16.60
2008,06,28,05,45,16.60
2008,06,28,05,46,16.60
2008,06,28,05,47,16.60
2008,06,28,05,48,16.60
2008,06,28,05,49,16.60
2008,06,28,05,50,16.70
2008,06,28,05,51,16.70
2008,06,28,05,52,16.70
2008,06,28,05,53,16.70
2008,06,28,05,54,16.70
2008,06,28,05,55,16.70
2008,06,28,05,56,16.70
2008,06,28,05,57,16.70
2008,06,28,05,58,16.70
2008,06,28,05,59,16.80
2008,06,28,06,00,16.80
2008,06,28,06,01,16.80
2008,06,28,06,02,16.90
2008,06,28,06,03,16.90
2008,06,28,06,04,16.90
2008,06,28,06,05,16.90
2008,06,28,06,06,17.00
2008,06,28,06,07,17.00
2008,06,28,06,08,17.00
2008,06,28,06,09,17.00
2008,06,28,06,10,17.10
2008,06,28,06,11,17.10
2008,06,28,06,12,17.10
2008,06,28,06,13,17.10
2008,06,28,06,14,17.20
2008,06,28,06,15,17.20
2008,06,28,06,16,17.20
2008,06,28,06,17,17.20
2008,06,28,06,18,17.20
2008,06,28,06,19,17.20
2008,06,28,06,20,17.20
2008,06,28,06,21,17.20
2008,06,28,06,22,17.30
2008,06,28,06,23,17.30
2008,06,28,06,24,17.30
2008,06,28,06,25,17.30
2008,06,28,06,26,17.30
2008,06,28,06,27,17.30
2008,06,28,06,28,17.40
2008,06,28,06,29,17.40
2008,06,28,06,30,17.40
2008,06,28,06,31,17.40
2008,06,28,06,32,17.50
2008,06,28,06,33,17.50
2008,06,28,06,34,17.60
2008,06,28,06,35,17.60
2008,06,28,06,36,17.60
2008,06,28,06,37,17.70
2008,06,28,06,38,17.70
2008,06,28,06,39,17.70
2008,06,28,06,40,17.70
2008,06,28,06,41,17.70
2008,06,28,06,42,17.70
2008,06,28,06,43,17.80
2008,06,28,06,44,17.80
2008,06,28,06,45,17.80
2008,06,28,06,46,17.80
2008,06,28,06,47,17.90
2008,06,28,06,48,17.90
2008,06,28,06,49,17.90
2008,06,28,06,50,18.00
2008,06,28,06,51,18.00
2008,06,28,06,52,18.10
2008,06,28,06,53,18.10
2008,06,28,06,54,18.10
2008,06,28,06,55,18.20
2008,06,28,06,56,18.20
2008,06,28,06,57,18.20
2008,06,28,06,58,18.20
2008,06,28,06,59,18.30
2008,06,28,07,00,18.30
2008,06,28,07,01,18.30
2008,06,28,07,02,18.30
2008,06,28,07,03,18.40
2008,06,28,07,04,18.40
2008,06,28,07,05,18.40
2008,06,28,07,06,18.40
2008,06,28,07,07,18.40
2008,06,28,07,08,18.50
2008,06,28,07,09,18.50
2008,06,28,07,10,18.60
2008,06,28,07,11,18.60
2008,06,28,07,12,18.60
2008,06,28,07,13,18.60
2008,06,28,07,14,18.60
2008,06,28,07,15,18.60
2008,06,28,07,16,18.60
2008,06,28,07,17,18.60
2008,06,28,07,18,18.60
2008,06,28,07,19,18.60
2008,06,28,07,20,18.60
2008,06,28,07,21,18.70
2008,06,28,07,22,18.70
2008,06,28,07,23,18.70
2008,06,28,07,24,18.70
2008,06,28,07,25,18.70
2008,06,28,07,26,18.70
2008,06,28,07,27,18.70
2008,06,28,07,28,18.80
2008,06,28,07,29,18.80
2008,06,28,07,30,18.80
2008,06,28,07,31,18.80
2008,06,28,07,32,18.80
2008,06,28,07,33,18.80
2008,06,28,07,34,18.80
2008,06,28,07,35,18.80
2008,06,28,07,36,18.80
2008,06,28,07,37,18.80
2008,06,28,07,38,18.90
2008,06,28,07,39,18.90
2008,06,28,07,40,18.90
2008,06,28,07,41,18.90
2008,06,28,07,42,18.90
2008,06,28,07,43,18.90
2008,06,28,07,44,18.90
2008,06,28,07,45,18.90
2008,06,28,07,46,18.90
2008,06,28,07,47,18.90
2008,06,28,07,48,18.90
2008,06,28,07,49,18.90
2008,06,28,07,50,18.90
2008,06,28,07,51,18.90
2008,06,28,07,52,18.90
2008,06,28,07,53,18.80
2008,06,28,07,54,18.90
2008,06,28,07,55,18.90
2008,06,28,07,56,18.90
2008,06,28,07,57,18.90
2008,06,28,07,58,18.90
2008,06,28,07,59,18.90
2008,06,28,08,00,18.90
2008,06,28,08,01,18.90
2008,06,28,08,02,18.90
2008,06,28,08,03,18.90
2008,06,28,08,04,18.90
2008,06,28,08,05,18.90
2008,06,28,08,06,18.90
2008,06,28,08,07,18.90
2008,06,28,08,08,18.90
2008,06,28,08,09,19.00
2008,06,28,08,10,19.00
2008,06,28,08,11,19.00
2008,06,28,08,12,19.10
2008,06,28,08,13,19.10
2008,06,28,08,14,19.10
2008,06,28,08,15,19.20
2008,06,28,08,16,19.20
2008,06,28,08,17,19.20
2008,06,28,08,18,19.20
2008,06,28,08,19,19.30
2008,06,28,08,20,19.30
2008,06,28,08,21,19.30
2008,06,28,08,22,19.40
2008,06,28,08,23,19.40
2008,06,28,08,24,19.50
2008,06,28,08,25,19.50
2008,06,28,08,26,19.50
2008,06,28,08,27,19.60
2008,06,28,08,28,19.60
2008,06,28,08,29,19.60
2008,06,28,08,30,19.60
2008,06,28,08,31,19.70
2008,06,28,08,32,19.70
2008,06,28,08,33,19.70
2008,06,28,08,34,19.70
2008,06,28,08,35,19.70
2008,06,28,08,36,19.70
2008,06,28,08,37,19.70
2008,06,28,08,38,19.70
2008,06,28,08,39,19.80
2008,06,28,08,40,19.80
2008,06,28,08,41,19.90
2008,06,28,08,42,19.90
2008,06,28,08,43,19.90
2008,06,28,08,44,20.00
2008,06,28,08,45,19.90
2008,06,28,08,46,19.90
2008,06,28,08,47,20.00
2008,06,28,08,48,20.00
2008,06,28,08,49,20.10
2008,06,28,08,50,20.10
2008,06,28,08,51,20.10
2008,06,28,08,52,20.10
2008,06,28,08,53,20.10
2008,06,28,08,54,20.10
2008,06,28,08,55,20.10
2008,06,28,08,56,20.10
2008,06,28,08,57,20.10
2008,06,28,08,58,20.10
2008,06,28,08,59,20.00
2008,06,28,09,00,20.00
2008,06,28,09,01,20.00
2008,06,28,09,02,20.00
2008,06,28,09,03,20.00
2008,06,28,09,04,20.00
2008,06,28,09,05,19.90
2008,06,28,09,06,19.90
2008,06,28,09,07,20.00
2008,06,28,09,08,20.00
2008,06,28,09,09,19.90
2008,06,28,09,10,19.90
2008,06,28,09,11,20.00
2008,06,28,09,12,20.00
2008,06,28,09,13,20.00
2008,06,28,09,14,20.00
2008,06,28,09,15,20.10
2008,06,28,09,16,20.10
2008,06,28,09,17,20.20
2008,06,28,09,18,20.20
2008,06,28,09,19,20.20
2008,06,28,09,20,20.30
2008,06,28,09,21,20.30
2008,06,28,09,22,20.30
2008,06,28,09,23,20.30
2008,06,28,09,24,20.40
2008,06,28,09,25,20.40
2008,06,28,09,26,20.50
2008,06,28,09,27,20.60
2008,06,28,09,28,20.60
2008,06,28,09,29,20.60
2008,06,28,09,30,20.60
2008,06,28,09,31,20.60
2008,06,28,09,32,20.60
2008,06,28,09,33,20.60
2008,06,28,09,34,20.60
2008,06,28,09,35,20.70
2008,06,28,09,36,20.80
2008,06,28,09,37,21.00
2008,06,28,09,38,21.10
2008,06,28,09,39,21.20
2008,06,28,09,40,21.30
2008,06,28,09,41,21.40
2008,06,28,09,42,21.40
2008,06,28,09,43,21.40
2008,06,28,09,44,21.50
2008,06,28,09,45,21.50
2008,06,28,09,46,21.60
2008,06,28,09,47,21.50
2008,06,28,09,48,21.50
2008,06,28,09,49,21.40
2008,06,28,09,50,21.40
2008,06,28,09,51,21.40
2008,06,28,09,52,21.50
2008,06,28,09,53,21.50
2008,06,28,09,54,21.50
2008,06,28,09,55,21.50
2008,06,28,09,56,21.50
2008,06,28,09,57,21.50
2008,06,28,09,58,21.50
2008,06,28,09,59,21.50
2008,06,28,10,00,21.50
2008,06,28,10,01,21.50
2008,06,28,10,02,21.50
2008,06,28,10,03,21.60
2008,06,28,10,04,21.50
2008,06,28,10,05,21.60
2008,06,28,10,06,21.60
2008,06,28,10,07,21.60
2008,06,28,10,08,21.60
2008,06,28,10,09,21.60
2008,06,28,10,10,21.50
2008,06,28,10,11,21.50
2008,06,28,10,12,21.50
2008,06,28,10,13,21.60
2008,06,28,10,14,21.60
2008,06,28,10,15,21.60
2008,06,28,10,16,21.60
2008,06,28,10,17,21.60
2008,06,28,10,18,21.70
2008,06,28,10,19,21.70
2008,06,28,10,20,21.70
2008,06,28,10,21,21.80
2008,06,28,10,22,21.80
2008,06,28,10,23,21.80
2008,06,28,10,24,21.80
2008,06,28,10,25,21.80
2008,06,28,10,26,21.90
2008,06,28,10,27,21.90
2008,06,28,10,28,22.00
2008,06,28,10,29,22.00
2008,06,28,10,30,22.10
2008,06,28,10,31,22.10
2008,06,28,10,32,22.20
2008,06,28,10,33,22.20
2008,06,28,10,34,22.10
2008,06,28,10,35,22.10
2008,06,28,10,36,22.10
2008,06,28,10,37,22.10
2008,06,28,10,38,22.10
2008,06,28,10,39,22.10
2008,06,28,10,40,22.10
2008,06,28,10,41,22.10
2008,06,28,10,42,22.10
2008,06,28,10,43,22.10
2008,06,28,10,44,22.00
2008,06,28,10,45,22.10
2008,06,28,10,46,22.10
2008,06,28,10,47,22.10
2008,06,28,10,48,22.10
2008,06,28,10,49,22.10
2008,06,28,10,50,22.10
2008,06,28,10,51,22.00
2008,06,28,10,52,21.90
2008,06,28,10,53,21.90
2008,06,28,10,54,22.00
2008,06,28,10,55,22.10
2008,06,28,10,56,22.10
2008,06,28,10,57,22.10
2008,06,28,10,58,22.20
2008,06,28,10,59,22.10
2008,06,28,11,00,22.10
2008,06,28,11,01,22.10
2008,06,28,11,02,22.10
2008,06,28,11,03,22.10
2008,06,28,11,04,22.20
2008,06,28,11,05,22.20
2008,06,28,11,06,22.20
2008,06,28,11,07,22.20
2008,06,28,11,08,22.30
2008,06,28,11,09,22.30
2008,06,28,11,10,22.30
2008,06,28,11,11,22.30
2008,06,28,11,12,22.30
2008,06,28,11,13,22.30
2008,06,28,11,14,22.40
2008,06,28,11,15,22.40
2008,06,28,11,16,22.50
2008,06,28,11,17,22.60
2008,06,28,11,18,22.60
2008,06,28,11,19,22.60
2008,06,28,11,20,22.70
2008,06,28,11,21,22.70
2008,06,28,11,22,22.80
2008,06,28,11,23,22.80
2008,06,28,11,24,22.90
2008,06,28,11,25,23.00
2008,06,28,11,26,23.10
2008,06,28,11,27,23.20
2008,06,28,11,28,23.30
2008,06,28,11,29,23.30
2008,06,28,11,30,23.30
2008,06,28,11,31,23.40
2008,06,28,11,32,23.30
2008,06,28,11,33,23.20
2008,06,28,11,34,23.10
2008,06,28,11,35,23.00
2008,06,28,11,36,22.90
2008,06,28,11,37,22.80
2008,06,28,11,38,22.80
2008,06,28,11,39,22.80
2008,06,28,11,40,22.70
2008,06,28,11,41,22.60
2008,06,28,11,42,22.60
2008,06,28,11,43,22.60
2008,06,28,11,44,22.60
2008,06,28,11,45,22.70
2008,06,28,11,46,22.70
2008,06,28,11,47,22.60
2008,06,28,11,48,22.60
2008,06,28,11,49,22.60
2008,06,28,11,50,22.60
2008,06,28,11,51,22.60
2008,06,28,11,52,22.60
2008,06,28,11,53,22.60
2008,06,28,11,54,22.60
2008,06,28,11,55,22.60
2008,06,28,11,56,22.60
2008,06,28,11,57,22.60
2008,06,28,11,58,22.60
2008,06,28,11,59,22.70
2008,06,28,12,00,22.70
2008,06,28,12,01,22.70
2008,06,28,12,02,22.70
2008,06,28,12,03,22.70
2008,06,28,12,04,22.70
2008,06,28,12,05,22.60
2008,06,28,12,06,22.60
2008,06,28,12,07,22.60
2008,06,28,12,08,22.60
2008,06,28,12,09,22.50
2008,06,28,12,10,22.50
2008,06,28,12,11,22.50
2008,06,28,12,12,22.60
2008,06,28,12,13,22.70
2008,06,28,12,14,22.70
2008,06,28,12,15,22.80
2008,06,28,12,16,22.90
2008,06,28,12,17,23.00
2008,06,28,12,18,23.10
2008,06,28,12,19,23.10
2008,06,28,12,20,23.10
2008,06,28,12,21,23.10
2008,06,28,12,22,23.10
2008,06,28,12,23,23.10
2008,06,28,12,24,23.10
2008,06,28,12,25,23.10
2008,06,28,12,26,23.10
2008,06,28,12,27,23.10
2008,06,28,12,28,23.20
2008,06,28,12,29,23.30
2008,06,28,12,30,23.40
2008,06,28,12,31,23.40
2008,06,28,12,32,23.40
2008,06,28,12,33,23.40
2008,06,28,12,34,23.40
2008,06,28,12,35,23.40
2008,06,28,12,36,23.40
2008,06,28,12,37,23.50
2008,06,28,12,38,23.60
2008,06,28,12,39,23.60
2008,06,28,12,40,23.70
2008,06,28,12,41,23.80
2008,06,28,12,42,23.80
2008,06,28,12,43,23.90
2008,06,28,12,44,23.80
2008,06,28,12,45,23.70
2008,06,28,12,46,23.60
2008,06,28,12,47,23.40
2008,06,28,12,48,23.30
2008,06,28,12,49,23.30
2008,06,28,12,50,23.30
2008,06,28,12,51,23.30
2008,06,28,12,52,23.30
2008,06,28,12,53,23.30
2008,06,28,12,54,23.30
2008,06,28,12,55,23.30
2008,06,28,12,56,23.40
2008,06,28,12,57,23.40
2008,06,28,12,58,23.40
2008,06,28,12,59,23.50
2008,06,28,13,00,23.50
2008,06,28,13,01,23.60
2008,06,28,13,02,23.60
2008,06,28,13,03,23.60
2008,06,28,13,04,23.70
2008,06,28,13,05,23.70
2008,06,28,13,06,23.80
2008,06,28,13,07,23.80
2008,06,28,13,08,23.90
2008,06,28,13,09,23.90
2008,06,28,13,10,23.90
2008,06,28,13,11,23.90
2008,06,28,13,12,24.00
2008,06,28,13,13,24.10
2008,06,28,13,14,24.10
2008,06,28,13,15,24.10
2008,06,28,13,16,24.20
2008,06,28,13,17,24.20
2008,06,28,13,18,24.10
2008,06,28,13,19,24.10
2008,06,28,13,20,24.10
2008,06,28,13,21,24.10
2008,06,28,13,22,24.00
2008,06,28,13,23,24.00
2008,06,28,13,24,24.00
2008,06,28,13,25,23.90
2008,06,28,13,26,23.90
2008,06,28,13,27,23.90
2008,06,28,13,28,24.00
2008,06,28,13,29,24.10
2008,06,28,13,30,24.10
2008,06,28,13,31,24.10
2008,06,28,13,32,24.10
2008,06,28,13,33,24.20
2008,06,28,13,34,24.20
2008,06,28,13,35,24.30
2008,06,28,13,36,24.30
2008,06,28,13,37,24.30
2008,06,28,13,38,24.30
2008,06,28,13,39,24.30
2008,06,28,13,40,24.30
2008,06,28,13,41,24.30
2008,06,28,13,42,24.40
2008,06,28,13,43,24.40
2008,06,28,13,44,24.40
2008,06,28,13,45,24.40
2008,06,28,13,46,24.40
2008,06,28,13,47,24.50
2008,06,28,13,48,24.50
2008,06,28,13,49,24.50
2008,06,28,13,50,24.40
2008,06,28,13,51,24.30
2008,06,28,13,52,24.20
2008,06,28,13,53,24.20
2008,06,28,13,54,24.30
2008,06,28,13,55,24.30
2008,06,28,13,56,24.50
2008,06,28,13,57,24.60
2008,06,28,13,58,24.60
2008,06,28,13,59,24.60
2008,06,28,14,00,24.70
2008,06,28,14,01,24.80
2008,06,28,14,02,24.80
2008,06,28,14,03,24.80
2008,06,28,14,04,24.70
2008,06,28,14,05,24.60
2008,06,28,14,06,24.60
2008,06,28,14,07,24.60
2008,06,28,14,08,24.60
2008,06,28,14,09,24.60
2008,06,28,14,10,24.70
2008,06,28,14,11,24.70
2008,06,28,14,12,24.80
2008,06,28,14,13,24.80
2008,06,28,14,14,24.80
2008,06,28,14,15,24.80
2008,06,28,14,16,24.80
2008,06,28,14,17,24.80
2008,06,28,14,18,24.80
2008,06,28,14,19,24.70
2008,06,28,14,20,24.70
2008,06,28,14,21,24.70
2008,06,28,14,22,24.70
2008,06,28,14,23,24.70
2008,06,28,14,24,24.70
2008,06,28,14,25,24.80
2008,06,28,14,26,24.80
2008,06,28,14,27,24.90
2008,06,28,14,28,25.00
2008,06,28,14,29,25.00
2008,06,28,14,30,25.10
2008,06,28,14,31,25.00
2008,06,28,14,32,25.00
2008,06,28,14,33,25.00
2008,06,28,14,34,25.00
2008,06,28,14,35,24.90
2008,06,28,14,36,24.90
2008,06,28,14,37,24.90
2008,06,28,14,38,25.00
2008,06,28,14,39,25.10
2008,06,28,14,40,25.10
2008,06,28,14,41,25.20
2008,06,28,14,42,25.20
2008,06,28,14,43,25.20
2008,06,28,14,44,25.20
2008,06,28,14,45,25.20
2008,06,28,14,46,25.30
2008,06,28,14,47,25.30
2008,06,28,14,48,25.40
2008,06,28,14,49,25.40
2008,06,28,14,50,25.30
2008,06,28,14,51,25.30
2008,06,28,14,52,25.30
2008,06,28,14,53,25.30
2008,06,28,14,54,25.30
2008,06,28,14,55,25.30
2008,06,28,14,56,25.30
2008,06,28,14,57,25.30
2008,06,28,14,58,25.20
2008,06,28,14,59,25.20
2008,06,28,15,00,25.20
2008,06,28,15,01,25.20
2008,06,28,15,02,25.30
2008,06,28,15,03,25.30
2008,06,28,15,04,25.40
2008,06,28,15,05,25.50
2008,06,28,15,06,25.60
2008,06,28,15,07,25.70
2008,06,28,15,08,25.80
2008,06,28,15,09,25.90
2008,06,28,15,10,25.90
2008,06,28,15,11,25.90
2008,06,28,15,12,25.90
2008,06,28,15,13,25.90
2008,06,28,15,14,25.90
2008,06,28,15,15,26.00
2008,06,28,15,16,26.10
2008,06,28,15,17,26.10
2008,06,28,15,18,26.20
2008,06,28,15,19,26.20
2008,06,28,15,20,26.30
2008,06,28,15,21,26.30
2008,06,28,15,22,26.40
2008,06,28,15,23,26.40
2008,06,28,15,24,26.40
2008,06,28,15,25,26.40
2008,06,28,15,26,26.40
2008,06,28,15,27,26.40
2008,06,28,15,28,26.50
2008,06,28,15,29,26.50
2008,06,28,15,30,26.60
2008,06,28,15,31,26.60
2008,06,28,15,32,26.60
2008,06,28,15,33,26.70
2008,06,28,15,34,26.70
2008,06,28,15,35,26.80
2008,06,28,15,36,26.80
2008,06,28,15,37,26.90
2008,06,28,15,38,27.00
2008,06,28,15,39,27.10
2008,06,28,15,40,27.20
2008,06,28,15,41,27.20
2008,06,28,15,42,27.20
2008,06,28,15,43,27.20
2008,06,28,15,44,27.20
2008,06,28,15,45,27.20
2008,06,28,15,46,27.20
2008,06,28,15,47,27.10
2008,06,28,15,48,27.00
2008,06,28,15,49,27.10
2008,06,28,15,50,27.10
2008,06,28,15,51,27.10
2008,06,28,15,52,27.10
2008,06,28,15,53,27.10
2008,06,28,15,54,27.10
2008,06,28,15,55,27.10
2008,06,28,15,56,27.10
2008,06,28,15,57,27.10
2008,06,28,15,58,27.00
2008,06,28,15,59,27.10
2008,06,28,16,00,27.10
2008,06,28,16,01,27.20
2008,06,28,16,02,27.20
2008,06,28,16,03,27.20
2008,06,28,16,04,27.20
2008,06,28,16,05,27.20
2008,06,28,16,06,27.20
2008,06,28,16,07,27.30
2008,06,28,16,08,27.20
2008,06,28,16,09,27.20
2008,06,28,16,10,27.10
2008,06,28,16,11,27.10
2008,06,28,16,12,27.10
2008,06,28,16,13,27.20
2008,06,28,16,14,27.20
2008,06,28,16,15,27.20
2008,06,28,16,16,27.20
2008,06,28,16,17,27.20
2008,06,28,16,18,27.30
2008,06,28,16,19,27.30
2008,06,28,16,20,27.30
2008,06,28,16,21,27.30
2008,06,28,16,22,27.20
2008,06,28,16,23,27.20
2008,06,28,16,24,27.10
2008,06,28,16,25,27.00
2008,06,28,16,26,26.90
2008,06,28,16,27,26.90
2008,06,28,16,28,26.90
2008,06,28,16,29,26.90
2008,06,28,16,30,27.00
2008,06,28,16,31,27.10
2008,06,28,16,32,27.00
2008,06,28,16,33,26.90
2008,06,28,16,34,26.90
2008,06,28,16,35,26.90
2008,06,28,16,36,27.00
2008,06,28,16,37,27.00
2008,06,28,16,38,26.90
2008,06,28,16,39,26.90
2008,06,28,16,40,26.80
2008,06,28,16,41,26.70
2008,06,28,16,42,26.70
2008,06,28,16,43,26.70
2008,06,28,16,44,26.60
2008,06,28,16,45,26.60
2008,06,28,16,46,26.60
2008,06,28,16,47,26.60
2008,06,28,16,48,26.50
2008,06,28,16,49,26.50
2008,06,28,16,50,26.50
2008,06,28,16,51,26.50
2008,06,28,16,52,26.50
2008,06,28,16,53,26.50
2008,06,28,16,54,26.50
2008,06,28,16,55,26.60
2008,06,28,16,56,26.60
2008,06,28,16,57,26.70
2008,06,28,16,58,26.80
2008,06,28,16,59,26.80
2008,06,28,17,00,26.90
2008,06,28,17,01,27.10
2008,06,28,17,02,27.10
2008,06,28,17,03,27.10
2008,06,28,17,04,27.20
2008,06,28,17,05,27.20
2008,06,28,17,06,27.20
2008,06,28,17,07,27.20
2008,06,28,17,08,27.20
2008,06,28,17,09,27.20
2008,06,28,17,10,27.20
2008,06,28,17,11,27.20
2008,06,28,17,12,27.30
2008,06,28,17,13,27.30
2008,06,28,17,14,27.30
2008,06,28,17,15,27.30
2008,06,28,17,16,27.30
2008,06,28,17,17,27.20
2008,06,28,17,18,27.20
2008,06,28,17,19,27.20